EHI
5 2 0 1 7 15 18 12 5 1 1 1 2 3 4 4 4 4 3 9 25 47 68 81 83 80 73 62 50 37 22 13 10 8 8 7 6 3 1 0 0 0 0
17 12 6 7 15 22 22 15 7 4 3 2 2 3 4 4 3 4 3 7 20 40 61 73 75 75 71 60 48 37 25 15 11 9 9 9 8 5 2 1 1 1 0
43 36 26 25 31 34 30 21 12 9 9 7 6 6 4 3 3 4 3 4 10 24 41 51 55 60 61 54 42 31 23 17 12 11 10 9 8 5 3 2 2 2 1
65 61 54 49 50 48 41 29 19 15 15 14 12 8 5 3 3 3 3 2 3 9 17 25 31 37 40 40 34 26 20 15 11 11 10 8 6 4 3 3 3 2 1
71 73 73 70 66 61 53 40 28 22 21 19 15 9 4 2 2 2 1 1 1 2 4 8 14 17 19 22 24 23 18 13 10 10 10 8 6 4 2 1 2 1 0
69 73 78 78 73 67 59 48 36 27 22 17 12 7 2 1 0 0 0 0 0 0 1 3 5 6 6 9 13 15 14 11 10 10 10 10 9 5 1 0 0 0 0
62 67 75 76 72 67 60 49 39 28 18 12 7 3 1 0 0 0 0 0 0 0 0 1 2 2 2 3 5 7 7 6 7 7 8 9 9 6 2 0 0 0 0
52 58 65 68 68 64 58 48 38 29 18 9 4 1 0 0 0 0 0 0 0 0 0 0 1 2 1 1 1 2 2 2 2 3 4 6 7 5 2 0 0 0 0
45 49 54 59 63 62 57 49 39 30 20 9 4 2 0 0 0 0 0 0 0 0 0 0 0 1 1 0 0 0 0 0 0 0 1 3 4 3 1 1 1 0 0
37 40 44 48 52 53 52 45 36 29 20 10 5 3 1 0 0 0 0 0 0 0 0 0 0 0 0 0 0 0 0 0 0 0 0 1 2 1 1 2 2 1 0
22 25 30 35 38 40 40 35 30 26 20 12 7 5 2 0 0 0 0 0 0 0 0 0 0 0 0 0 0 0 0 0 0 0 0 0 0 0 1 2 2 2 1
8 11 15 20 24 27 27 24 21 20 18 12 9 6 3 1 0 0 0 0 0 0 0 0 0 0 0 0 0 0 0 0 0 0 0 0 0 0 1 1 1 1 1
1 4 7 9 12 16 17 15 13 12 11 9 6 5 3 2 1 0 0 0 0 0 0 0 0 0 0 0 0 0 0 0 0 0 0 0 0 0 0 0 0 0 1
0 1 3 5 7 9 10 9 7 6 5 3 2 2 2 2 1 0 0 0 0 0 0 0 0 0 0 0 0 0 0 0 0 0 0 0 0 0 0 0 0 0 0
0 0 1 3 5 6 6 5 4 2 1 0 0 0 1 1 1 0 0 0 0 0 0 0 0 0 0 0 0 0 0 0 0 0 0 0 0 0 0 0 0 0 0
0 0 0 1 2 3 3 2 2 1 0 0 0 0 0 0 0 0 0 0 0 0 0 0 0 0 0 0 0 0 0 0 0 0 0 0 0 0 0 0 0 0 0
0 0 0 0 0 1 1 1 0 0 0 0 0 0 0 0 0 0 0 0 0 0 0 0 0 0 0 0 0 0 0 0 0 0 0 0 0 0 0 0 0 0 0
0 0 0 0 0 0 0 0 0 0 0 0 0 0 0 0 0 0 0 0 0 0 0 0 0 0 0 0 0 0 0 0 0 0 0 0 0 0 0 0 0 0 0
0 0 0 0 0 0 0 0 0 0 0 0 0 0 0 0 0 0 0 0 0 0 0 0 0 0 0 0 0 0 0 0 0 0 0 0 0 0 0 0 0 0 0
0 0 0 0 0 0 0 0 0 0 0 0 0 0 0 0 0 0 0 0 0 0 0 0 0 0 0 0 0 0 0 0 0 0 0 0 0 0 0 0 0 0 0
0 0 0 0 0 0 0 0 0 0 0 0 0 0 0 0 0 0 0 0 0 0 0 0 0 0 0 0 0 0 0 0 0 0 0 0 0 0 0 0 0 0 0
0 0 0 0 0 0 0 0 0 0 0 0 0 0 0 0 0 0 0 0 0 0 0 0 0 0 0 0 0 0 0 0 0 0 0 0 0 0 0 0 0 0 0
0 0 0 0 0 0 0 0 0 0 0 0 0 0 0 0 0 0 0 0 0 0 0 0 0 0 0 0 0 0 0 0 0 0 0 0 0 0 0 0 0 0 0
0 0 0 0 0 0 0 0 0 0 0 0 0 0 0 0 0 0 0 0 0 0 0 0 0 0 0 0 0 0 0 0 0 0 0 0 0 0 0 0 0 0 0
0 0 0 0 0 0 0 0 0 0 0 0 0 0 0 0 0 0 0 0 0 0 0 0 0 0 0 0 0 0 0 0 0 0 0 0 0 0 0 0 0 0 0
0 0 0 0 0 0 0 0 0 0 0 0 0 0 0 0 0 0 0 0 0 0 0 0 0 0 0 0 0 0 0 0 0 0 0 0 0 0 0 0 0 0 0
Wind_Speed
7 7 6 6 7 6 6 6 7 8 8 8 8 9 9 9 8 7 6 13 15 15 17 19 19 19 18 17 16 16 16 16 15 15 16 17 17 17 17 17 17 16 16
8 7 6 6 6 6 7 7 8 7 7 6 7 8 7 7 7 7 6 7 13 15 18 19 19 19 18 18 17 16 16 16 15 14 15 16 16 17 17 18 18 17 16
10 8 7 6 6 6 6 6 7 5 5 6 6 6 5 5 4 5 5 4 5 11 16 18 19 18 18 18 18 17 16 16 15 15 15 15 15 16 16 17 17 17 17
11 9 7 7 6 5 5 5 4 4 4 4 4 4 4 4 5 5 4 4 4 5 9 16 18 19 19 19 18 18 16 16 16 15 15 15 15 15 16 16 17 16 16
10 8 7 6 6 5 5 5 4 4 4 5 5 5 4 4 4 5 5 5 5 5 5 9 15 16 18 19 19 18 16 16 15 16 16 16 16 15 15 15 16 16 16
7 7 6 7 6 4 4 4 5 4 4 4 5 5 4 4 4 5 6 5 5 7 7 7 6 8 14 16 17 17 16 15 14 15 16 16 16 15 15 15 15 16 16
6 6 6 6 5 5 6 6 5 5 4 3 2 3 4 5 6 5 5 5 6 6 5 5 4 4 4 11 13 13 13 13 13 13 14 15 16 15 16 16 16 16 16
6 6 7 6 6 6 7 7 6 4 4 4 4 2 3 4 4 5 3 4 4 3 3 4 3 3 3 2 4 8 9 9 10 10 11 12 14 15 16 17 17 16 16
6 6 7 6 6 7 7 8 8 8 6 4 5 5 4 5 3 3 2 1 2 2 1 1 1 1 2 2 2 3 5 5 6 7 6 7 10 12 14 15 17 17 17
6 6 6 7 7 6 8 8 8 6 6 6 4 5 4 4 3 2 2 1 2 2 1 1 1 1 2 2 2 3 2 1 2 3 4 4 5 7 9 12 15 17 17
5 5 5 5 6 6 7 8 7 7 7 7 5 4 4 4 4 3 3 2 2 1 1 1 1 2 2 3 2 3 3 2 1 1 2 2 2 3 4 6 9 12 15
4 5 5 5 6 6 7 8 8 8 8 8 6 5 5 4 5 4 5 3 2 2 1 0 1 2 2 2 3 4 3 2 1 1 1 1 1 1 2 3 5 7 10
4 6 6 6 6 6 7 7 7 8 8 8 7 6 6 5 3 4 3 2 1 1 1 2 1 1 2 2 1 3 2 1 2 2 2 2 2 2 2 3 4 5 7
5 6 7 7 7 6 6 6 5 7 6 7 8 6 5 5 4 4 4 3 2 1 2 2 2 2 1 2 1 1 0 1 2 3 3 3 3 2 2 3 3 4 5
5 6 7 7 6 6 5 5 5 6 6 6 6 6 5 4 4 4 3 4 5 3 1 1 1 2 1 2 2 1 1 2 2 3 4 4 4 4 3 3 4 5 6
5 6 6 6 5 4 4 3 3 3 4 5 4 5 4 3 3 3 3 3 3 4 3 1 1 1 3 4 4 3 2 3 3 2 4 4 5 5 4 4 5 6 6
5 6 6 6 5 3 2 1 1 0 1 2 4 6 6 6 4 4 4 4 3 4 5 2 2 3 4 5 4 4 3 3 2 3 2 3 4 5 5 5 6 7 7
5 5 6 5 5 3 2 1 2 4 5 5 5 7 7 7 7 5 5 5 4 4 6 5 3 4 5 4 4 4 4 3 2 3 3 3 3 5 6 6 7 7 8
4 5 5 5 4 4 3 4 6 7 8 8 8 8 8 9 9 6 6 5 4 6 5 6 3 3 3 3 4 4 5 3 3 4 4 3 4 4 4 6 7 7 9
3 4 4 4 4 4 4 5 6 7 8 9 9 8 8 8 8 7 7 6 7 8 7 6 4 3 3 3 3 4 4 4 3 4 5 4 4 4 5 5 6 7 8
2 3 3 4 4 3 4 5 6 8 9 9 8 8 8 10 10 7 7 6 7 7 6 5 4 3 3 3 3 3 3 3 3 3 4 3 3 3 3 4 5 7 8
0 1 2 3 4 4 5 7 7 7 7 8 8 7 8 9 10 12 11 10 9 8 6 4 3 3 2 2 2 2 2 3 4 4 3 4 3 3 3 3 5 7 8
1 1 1 2 3 4 6 8 9 7 7 6 6 6 7 6 7 7 9 11 10 9 7 5 4 2 1 0 1 3 2 2 2 4 3 3 3 3 4 4 7 8 8
3 3 2 2 3 3 7 8 10 7 7 6 6 7 7 5 5 7 7 7 6 6 5 4 3 1 1 2 2 1 1 2 3 3 2 2 4 4 4 4 6 7 8
4 3 3 4 4 3 6 8 8 6 6 6 5 6 7 6 8 10 8 7 6 4 5 7 6 5 4 4 3 3 4 4 3 4 2 2 3 4 4 3 4 7 8
5 5 4 4 5 4 5 8 9 5 6 5 4 4 7 8 9 10 7 7 6 3 4 5 7 7 6 6 6 3 2 2 1 3 3 2 3 3 5 4 4 4 5
Wind_Direction
221 224 226 224 221 214 214 220 227 234 237 239 238 239 240 238 238 236 245 252 246 236 229 225 225 225 227 228 230 231 231 231 228 224 223 223 223 222 221 219 219 216 212
221 224 226 221 217 212 214 217 223 227 230 232 235 237 238 239 241 243 244 252 245 235 230 230 230 228 229 231 232 232 232 232 230 225 224 224 224 222 221 220 219 217 215
217 220 223 220 214 208 208 214 222 222 228 232 239 243 242 241 243 248 251 247 251 244 238 237 238 235 233 233 235 235 233 232 230 227 225 224 223 221 220 220 218 216 214
217 217 219 220 212 203 201 207 210 219 230 231 235 242 242 245 253 256 255 251 251 259 251 248 246 242 239 238 238 238 236 234 231 228 226 224 223 221 219 219 218 216 213
222 217 219 220 208 203 204 215 209 206 221 226 231 236 235 238 249 263 259 254 249 248 249 255 250 247 246 243 240 240 239 237 234 232 229 225 223 220 218 216 216 215 213
229 221 224 222 209 207 213 216 217 212 218 219 238 247 240 240 243 246 252 254 247 245 245 245 245 249 248 246 242 241 241 242 240 235 233 227 222 217 215 214 214 214 214
235 225 230 225 216 218 221 217 213 220 229 207 220 273 276 249 246 244 243 247 247 246 240 236 230 228 242 244 243 245 247 248 248 244 238 230 223 217 213 213 213 214 214
251 242 230 226 220 221 225 221 214 216 224 194 186 202 286 302 272 248 238 242 253 254 256 252 233 222 221 225 233 240 250 253 254 253 245 235 226 219 215 214 213 213 213
263 257 247 236 228 221 229 227 218 215 225 220 194 178 195 235 275 289 258 242 274 270 260 287 282 264 214 201 204 226 239 256 271 269 259 249 235 225 220 218 216 213 213
274 265 255 244 236 231 233 233 226 216 214 225 217 212 205 184 197 276 296 264 244 239 230 249 271 232 201 177 157 165 182 233 276 293 291 279 253 235 228 225 223 218 214
285 281 272 264 255 244 238 235 230 220 214 217 208 200 210 215 205 204 257 283 298 272 240 214 186 205 184 144 141 152 144 158 201 292 307 323 302 254 237 237 238 230 222
300 298 290 271 260 252 245 239 232 227 222 219 213 200 189 189 198 196 221 232 246 268 279 199 152 179 160 148 154 153 158 175 200 234 245 249 274 271 266 263 261 254 243
305 301 298 285 273 260 251 241 232 230 225 218 216 211 204 205 180 171 183 197 205 283 12 30 61 110 111 109 126 158 183 222 236 238 233 231 240 242 251 265 273 271 268
297 298 296 287 278 269 261 245 236 233 224 218 217 207 199 197 185 177 171 161 145 66 45 41 25 43 59 85 94 116 317 277 256 242 239 236 237 241 251 263 273 280 279
307 311 306 298 285 274 264 249 238 235 223 215 207 197 192 185 175 180 173 162 151 145 125 21 48 9 23 66 57 43 331 299 277 245 242 239 237 238 246 258 270 278 281
317 321 322 317 306 293 283 259 248 234 216 204 190 180 174 161 151 148 145 136 143 141 135 123 73 31 33 48 41 28 10 7 338 285 257 251 248 246 249 260 271 278 280
320 324 327 324 317 310 316 315 309 97 130 137 152 145 133 119 116 112 111 107 105 113 115 83 43 39 48 38 17 18 27 26 352 342 315 273 260 257 259 266 274 279 282
321 323 325 331 336 332 349 42 80 78 75 78 98 113 112 106 98 96 95 95 94 100 116 109 59 38 41 33 26 26 15 10 351 355 356 334 292 275 270 271 276 281 284
324 332 339 342 355 6 33 61 75 75 78 77 74 86 98 101 93 89 89 88 88 91 95 105 84 43 32 23 22 12 9 358 355 9 7 355 342 323 297 283 281 284 286
326 338 343 352 9 24 54 72 85 86 84 81 77 76 81 90 95 95 91 90 94 92 90 92 80 45 25 359 29 12 358 347 348 0 359 351 349 342 327 316 302 295 291
332 344 355 14 24 35 76 95 94 98 94 90 84 79 78 83 86 89 97 96 98 97 92 89 80 56 27 20 10 345 354 331 333 351 343 338 344 338 328 320 314 313 310
331 22 27 29 35 46 78 93 100 96 96 97 93 87 80 70 77 82 89 92 101 107 107 100 89 79 39 12 350 358 4 11 340 330 350 324 338 327 315 307 310 315 316
172 138 93 72 66 62 84 101 107 107 105 104 101 93 87 76 74 82 79 74 75 88 110 121 113 121 115 7 27 16 14 16 298 300 351 321 322 313 304 307 314 317 318
179 170 158 140 110 93 95 97 100 98 95 94 97 101 98 79 83 96 89 75 65 63 77 92 126 159 177 185 159 159 263 330 318 321 21 333 312 307 305 306 312 319 320
180 175 164 154 142 122 111 112 108 99 96 92 94 99 101 92 96 99 94 86 65 38 52 64 77 83 74 87 104 61 33 36 354 316 342 351 306 309 308 303 304 313 315
181 172 165 164 158 154 141 129 124 115 109 105 91 88 99 106 101 99 99 96 79 37 34 48 49 45 44 44 55 76 97 75 7 317 311 341 311 330 322 305 308 315 317